This demonstration page uses our WeatherBlox Daily Observations layout. Learn more.

Left ArrowRight Arrow

Hourly Observations for October 12, 2018

Temp ( °F °C ) Dew Point ( °F °C ) Humidity (%) Winds ( mph kmh ) Pressure ( in mb ) Visibility ( mi km ) Precip ( " mm )
12:54 am 00:54 Cloudy 44 6.7 38 3.3 79 79 S 5 7 30.12 1020 10 16 0.00 0.00
1:54 am 01:54 Cloudy with Light Rain 44 6.7 37 2.8 76 76 SSW 6 9 30.11 1020 10 16 0.00 0.03
2:54 am 02:54 Cloudy with Light Rain 44 6.7 38 3.3 79 79 NW 5 7 30.11 1020 7 11 0.02 0.51
3:24 am 03:24 Cloudy with Rain 43 6.1 38 3.3 82 82 Calm 30.15 1021 5 8 0.03 0.76
3:54 am 03:54 Cloudy with Rain 42 5.6 39 3.9 89 89 SSE 3 6 30.10 1019 7 11 0.08 2.03
4:06 am 04:06 Cloudy with Light Rain 42 5.6 40 4.4 92 92 ESE 5 7 30.09 1019 10 16 0.00 0.03
4:22 am 04:22 Cloudy 43 6.1 40 4.4 89 89 Calm 30.12 1020 10 16 0.00 0.03
4:54 am 04:54 Cloudy 43 6.1 40 4.4 89 89 Calm 30.09 1019 10 16 0.00 0.03
5:54 am 05:54 Cloudy 43 6.1 40 4.4 89 89 ENE 5 7 30.09 1019 8 13 0.00 0.00
6:40 am 06:40 Cloudy with Light Rain 43 6.1 41 5 93 93 E 7 11 30.09 1019 7 11 0.01 0.25
6:54 am 06:54 Cloudy 43 6.1 41 5 93 93 ENE 6 9 30.08 1019 8 13 0.01 0.25
7:00 am 07:00 Cloudy 43 6.1 41 5 93 93 E 5 7 30.09 1019 9 14 0.00 0.00
7:26 am 07:26 Cloudy with Mist and Fog 43 6.1 41 5 93 93 E 3 6 30.09 1019 5 8 0.00 0.00
7:54 am 07:54 Cloudy with Light Rain 42 5.6 40 4.4 92 92 ESE 6 9 30.08 1019 7 11 0.00 0.03
8:54 am 08:54 Cloudy with Light Rain 43 6.1 41 5 93 93 SE 5 7 30.07 1018 6 10 0.03 0.76
9:01 am 09:01 Cloudy with Light Rain 43 6.1 41 5 93 93 SSE 6 9 30.09 1019 5 8 0.01 0.25
9:24 am 09:24 Cloudy with Light Rain 43 6.1 41 5 93 93 SSE 7 11 30.09 1019 6 10 0.03 0.76
9:32 am 09:32 Cloudy with Light Rain 43 6.1 41 5 93 93 S 7 11 30.09 1019 6 10 0.03 0.76
9:54 am 09:54 Cloudy with Light Rain 43 6.1 41 5 93 93 SSE 9 15 30.05 1018 8 13 0.04 1.02
10:31 am 10:31 Cloudy with Light Rain 43 6.1 40 4.4 89 89 S 8 13 30.09 1019 8 13 0.02 0.51
10:43 am 10:43 Cloudy with Light Rain 43 6.1 40 4.4 89 89 S 7 11 30.09 1019 7 11 0.02 0.51
10:54 am 10:54 Cloudy with Light Rain 43 6.1 40 4.4 89 89 S 8 13 30.07 1018 5 8 0.02 0.51
11:54 am 11:54 Cloudy 44 6.7 40 4.4 85 85 S 7 11 30.06 1018 10 16 0.01 0.25
12:04 pm 12:04 Cloudy 44 6.7 40 4.4 85 85 SSW 7 11 30.06 1018 10 16 0.00 0.00
12:31 pm 12:31 Cloudy with Mist and Fog 43 6.1 40 4.4 89 89 S 9 15 30.06 1018 6 10 0.00 0.00
12:54 pm 12:54 Cloudy 44 6.7 41 5 89 89 SSW 7 11 30.04 1017 10 16 0.00 0.00
1:18 pm 13:18 Cloudy 45 7.2 41 5 86 86 SW 7 11 30.06 1018 10 16 0.00 0.00
1:27 pm 13:27 Cloudy 45 7.2 40 4.4 83 83 SW 9 15 30.06 1018 10 16 0.00 0.00
1:44 pm 13:44 Cloudy 45 7.2 41 5 86 86 SW 8 13 30.06 1018 10 16 0.00 0.00
1:54 pm 13:54 Cloudy with Mist and Fog 44 6.7 41 5 89 89 SW 9 15 30.03 1017 5 8 0.00 0.00
2:20 pm 14:20 Cloudy 44 6.7 41 5 89 89 W 6 9 30.03 1017 7 11 0.00 0.00
2:54 pm 14:54 Cloudy 46 7.8 42 5.6 86 86 SW 6 9 30.00 1016 10 16 0.00 0.03
3:07 pm 15:07 Cloudy 47 8.3 41 5 80 80 SSW 10 17 30.00 1016 10 16 0.00 0.00
3:27 pm 15:27 Cloudy 47 8.3 41 5 80 80 WSW 8 13 30.00 1016 10 16 0.00 0.00
3:54 pm 15:54 Cloudy 47 8.3 41 5 80 80 WSW 6 9 29.98 1015 10 16 0.00 0.00
4:41 pm 16:41 Cloudy 47 8.3 41 5 80 80 SW 5 7 30.00 1016 10 16 0.00 0.00
4:54 pm 16:54 Cloudy 47 8.3 41 5 80 80 W 3 6 29.97 1015 10 16 0.00 0.00
5:04 pm 17:04 Cloudy 47 8.3 41 5 80 80 W 5 7 30.00 1016 10 16 0.00 0.00
5:35 pm 17:35 Cloudy 48 8.9 42 5.6 80 80 S 3 6 29.97 1015 10 16 0.00 0.00
5:54 pm 17:54 Mostly Cloudy 48 8.9 42 5.6 80 80 S 3 6 29.96 1014 10 16 0.00 0.00
6:16 pm 18:16 Partly Cloudy 47 8.3 41 5 80 80 SSW 5 7 30.00 1016 10 16 0.00 0.00
6:54 pm 18:54 Mostly Clear 43 6.1 40 4.4 89 89 S 6 9 29.98 1015 10 16 0.00 0.00
7:54 pm 19:54 Mostly Cloudy 44 6.7 41 5 89 89 S 3 6 29.99 1016 10 16 0.00 0.00
8:54 pm 20:54 Clear 42 5.6 40 4.4 92 92 Calm 29.98 1015 10 16 0.00 0.00
9:37 pm 21:37 Mostly Cloudy 41 5 40 4.4 96 96 SSW 3 6 30.00 1016 10 16 0.00 0.00
9:54 pm 21:54 Mostly Cloudy 42 5.6 39 3.9 89 89 WNW 3 6 29.98 1015 10 16 0.00 0.00
10:07 pm 22:07 Mostly Clear 39 3.9 38 3.3 96 96 Calm 30.00 1016 10 16 0.00 0.00
10:54 pm 22:54 Clear with Mist and Fog 36 2.2 35 1.7 97 97 S 5 7 29.98 1015 2 3 0.00 0.00
11:02 pm 23:02 Clear with Mist and Fog 38 3.3 36 2.2 93 93 S 6 9 30.03 1017 5 8 0.00 0.00
11:54 pm 23:54 Clear 38 3.3 36 2.2 93 93 Calm 29.98 1015 8 13 0.00 0.00

Powered by AerisWeather